Apple Cup Yearling Classic - 1st Training Toss 2017

Station: Moxee Dump Rd - T Race

Distance: 4 Miles

Release: 20-Mar-2017 09:30

Weather Release:    Arrival:

Wind at Release: Windy     Wind at Arrival: Windy

Temp at Release: 40F°    Temp at Arrival: °

Lofts: 155

Birds: 608

Clocked: 594

Good Luck to Everyone!
Drops Pos Breeder Pigeon Name Color Sex Ent Arrival Speed To Win Eligible
101 Burge Family Loft 0063-AU16-BURG BCWF H 1 09:57:34.21 255.348 00:00:48 Yes
102 Ganus Family Loft 0137-AU16-GFL BB H 2 09:57:34.82 255.254 00:00:49 Yes
103 Val & Bill 1612-CU16-WCW BC H 3 09:57:35.26 255.186 00:00:49 Yes
104 Little Reata Loft 16175-AU16-JETT PIED H 6 09:57:35.28 255.183 00:00:49 Yes
105 Bob Bostwick 0663-AU16-COCO BB H 1 09:57:35.58 255.137 00:00:49 Yes
106 Skylinerpl.Com 0522-AU16-UVI BB H 1 09:57:35.87 255.092 00:00:50 Yes
107 David Clausing 0022-IF16-CLAU BBWF H 1 09:57:36.46 255.002 00:00:50 Yes
108 Burge Family Loft 0062-AU16-BURG RB H 2 09:57:36.64 254.974 00:00:50 Yes
109 Burge Family Loft 0069-AU16-BURG BB H 3 09:57:36.93 254.929 00:00:51 Yes
110 Dream Team 22661-AU16-ARPU BC H 4 09:57:36.96 254.925 00:00:51 Yes
111 Burge Family Loft 0060-AU16-BURG BB H 4 09:57:37.80 254.796 00:00:52 Yes
112 Dave Naylor 0351-CU16-MP BB H 1 09:57:37.84 254.789 00:00:52 Yes
113 Ganus Family Loft 0666-AU16-GFL BB H 3 09:57:38.12 254.746 00:00:52 Yes
114 Don Ogren 8919-AU16-STIL RC H 1 09:57:38.59 254.674 00:00:52 Yes
115 Crooked Arrow Loft 6770-AU16-NYKA BC H 1 09:57:39.03 254.607 00:00:53 Yes
116 Dream Union 0092-IF16-LU DC H 1 09:57:39.18 254.584 00:00:53 Yes
117 Ken Easley & Son Racing 4522-AU16-EASL Krugerrand PIED H 2 09:57:39.27 254.570 00:00:53 Yes
118 Yo Yo Spetz 1628-AU16-JEDD DC H 1 09:57:39.50 254.534 00:00:53 Yes
119 Torontotrifecta.Com 26541-AU16-JEDD BBSP H 3 09:57:39.78 254.492 00:00:54 Yes
120 Racing Pigeon Mall 0637-AU16-RPM BLK H 2 09:57:40.70 254.351 00:00:54 Yes
121 Lulus Loft 0418-AU16-SD Something Special BC H 2 09:57:40.87 254.325 00:00:55 Yes
122 3 Stars & A Sun Loft 0037-AU16-STAR BB H 2 09:57:41.75 254.190 00:00:56 Yes
123 Dream Team 3486-IF16-MH BB H 5 09:57:41.80 254.182 00:00:56 Yes
124 Zheng Family Loft 20260-AU16-ARPU Diamond Sissi BB H 1 09:57:42.50 254.075 00:00:56 Yes
125 American Lofts 7552-AU16-CORP PIED H 3 09:57:44.11 253.829 00:00:58 Yes
126 Ganus Family Loft 0669-AU16-GFL BB H 4 09:57:44.39 253.787 00:00:58 Yes
127 Fleet Washington 1684-AU16-FLET BB H 1 09:57:44.61 253.753 00:00:58 Yes
128 Eze Loft 0047-AU16-EZE BC H 1 09:57:45.10 253.678 00:00:59 Yes
129 Val & Bill 1617-CU16-WCW BCWF H 4 09:57:45.79 253.573 00:01:00 Yes
130 Mels Loft 0059-AU16-MTFL STAFS GROTE BB H 1 09:57:46.13 253.522 00:01:00 Yes
131 David Clausing 0144-IF16-CLAU RCWF H 2 09:57:46.21 253.509 00:01:00 Yes
132 O G Lofts 1519-AU16-WSJ BB H 1 09:57:46.46 253.471 00:01:00 Yes
133 Silvercreek Loft 1603-CU16-SILV BB H 3 09:57:46.69 253.436 00:01:00 Yes
134 Arnold Swain 0494-AU16-YAK Yakima Jackson RDWF H 1 09:57:46.94 253.398 00:01:01 Yes
135 Captain Chuck 20668-AU16-ARPU BCWF H 1 09:57:47.60 253.298 00:01:01 Yes
136 Nanez Family Lofts 6893-AU16-NFL FAUST - THORSTEN DAUM BBWF H 2 09:57:47.64 253.292 00:01:01 Yes
137 Woodland Loft 0006-IF16-WOOD BC H 1 09:57:47.93 253.248 00:01:02 Yes
138 Flyhome Loft 18460-AU16-JEDD BC H 2 09:57:48.04 253.231 00:01:02 Yes
139 Little Reata Loft 16172-AU16-JETT BB H 7 09:57:48.52 253.158 00:01:02 Yes
140 Alan Porter 0479-AU16-GUYS BB H 4 09:57:48.62 253.143 00:01:02 Yes
141 Joe Dan & Kevin Monroe 0450-AU16-WWC DC H 1 09:57:49.26 253.046 00:01:03 Yes
142 Ed Kehl 1678-AU16-WFA BB H 2 09:57:49.29 253.042 00:01:03 Yes
143 A-Lin Loft 45127-AU16-AA GRIZ H 2 09:57:49.77 252.969 00:01:04 Yes
144 Fassio/Royer Team 6265-AU16-SLI BC H 3 09:57:50.60 252.843 00:01:04 Yes
145 Crooked Arrow Loft 1404-AU16-GNEO BCWF H 2 09:57:51.00 252.783 00:01:05 Yes
146 David Clausing 0112-IF16-CLAU BB H 3 09:57:51.41 252.721 00:01:05 Yes
147 Dream Team 54113-AU16-ARPU SPLH H 6 09:57:51.65 252.684 00:01:05 Yes
148 Spirit Loft 0390-AU16-OMAH BB H 2 09:57:51.75 252.669 00:01:06 Yes
149 Exclusive Energy Racing 32607-AU16-JEDD BB H 1 09:57:52.47 252.561 00:01:06 Yes
150 Applis Loft 14325-AU16-AA California Moonlight SLAT H 1 09:57:52.88 252.499 00:01:07 Yes
151 Ken Easley & Son Racing 4518-AU16-EASL African Bones BC C 3 09:57:53.57 252.395 00:01:07 Yes
152 Nanez Family Lofts 6769-AU16-NFL Iron-Clad x Clockwork Blu BB H 3 09:57:54.78 252.212 00:01:09 Yes
153 Arnold Balatbat 62431-AU16-MAN KANSAS BB H 2 09:57:55.15 252.157 00:01:09 Yes
154 Huan Qiu Zhang 0167-IF16-JNC BB H 1 09:57:55.20 252.149 00:01:09 Yes
155 Crooked Arrow Loft 19901-AU16-AA RC H 3 09:57:55.69 252.075 00:01:09 Yes
156 Woodland Loft 0100-IF16-WOOD BB H 2 09:57:56.99 251.880 00:01:11 Yes
157 Crooked Arrow Loft 6470-AU16-FDY BB H 4 09:57:57.39 251.820 00:01:11 Yes
158 Racing Pigeon Mall 0636-AU16-RPM DC H 3 09:57:57.96 251.734 00:01:12 Yes
159 Fassio/Royer Team 6269-AU16-SLI BB H 4 09:57:58.00 251.728 00:01:12 Yes
160 Daehn/Miele 0045-AU16-NWFL BB H 1 09:57:58.27 251.688 00:01:12 Yes
161 Valhalla Loft 0359-AU16-WSJ PIED H 1 09:57:58.73 251.619 00:01:13 Yes
162 Valhalla Loft 0357-AU16-WSJ BC H 2 09:57:59.48 251.506 00:01:13 Yes
163 Fassio/Royer Team 6273-AU16-SLI BB H 5 09:58:00.58 251.342 00:01:14 Yes
164 Cactus Lofts 0934-AU16-AONE OPAL H 4 09:58:00.85 251.301 00:01:15 Yes
165 Modud 1229-AU16-SD BB H 1 09:58:00.89 251.295 00:01:15 Yes
166 Greek Connection 0274-AU16-GREK 5490 BB H 3 09:58:00.93 251.289 00:01:15 Yes
167 Western Loft 1575-AU16-SFR BB H 2 09:58:01.32 251.231 00:01:15 Yes
168 Michael Francisco 0089-AU16-LANA PIED H 1 09:58:02.96 250.986 00:01:17 Yes
169 Zarlenga Loft 2545-AU16-FVC BB H 2 09:58:04.11 250.815 00:01:18 Yes
170 Cactus Lofts 0928-AU16-AONE BBWF H 5 09:58:05.07 250.672 00:01:19 Yes
171 Nick & Sons 10600-AU16-HOOD BBWF H 1 09:58:05.36 250.629 00:01:19 Yes
172 Woodland Loft 0004-IF16-WOOD BC H 3 09:58:05.65 250.586 00:01:19 Yes
173 Paine-Rose 8373-AU16-JEDD DC H 1 09:58:05.85 250.556 00:01:20 Yes
174 Baldwin / Tilson 6376-AU16-TENT BB H 1 09:58:06.80 250.415 00:01:21 Yes
175 Val & Bill 1610-CU16-WCW BB H 5 09:58:07.93 250.247 00:01:22 Yes
176 American Lofts 7535-AU16-CORP SLAT H 4 09:58:08.81 250.117 00:01:23 Yes
177 Ken Easley & Son Racing 4520-AU16-EASL Easy Fig BC H 4 09:58:09.86 249.962 00:01:24 Yes
178 Crooked River Challenge 7656-AU16-CORP BB H 1 09:58:10.06 249.932 00:01:24 Yes
179 Igor & Sons Loft 10444-AU16-MTHD BB H 2 09:58:10.15 249.919 00:01:24 Yes
180 Ed Kehl 0301-AU16-WFA BB H 3 09:58:11.21 249.762 00:01:25 Yes
181 Marengo Creek Farms 2520-AU16-MFC BB H 1 09:58:12.48 249.575 00:01:26 Yes
182 Jones Family Loft 0653-AU16-KJRA BB H 1 09:58:12.63 249.552 00:01:26 Yes
183 Palomera 0468-AU16-GSC BB H 2 09:58:13.27 249.458 00:01:27 Yes
184 Sparks Trio Syn 0999-AU16-MACH BC H 1 09:58:14.38 249.295 00:01:28 Yes
185 Salsloft.Com 1018-AU16-SALS BB H 2 09:58:15.20 249.174 00:01:29 Yes
186 Blacksmith Loft 0536-AU16-AWG BB H 1 09:58:16.22 249.024 00:01:30 Yes
187 P N A Loft 0061-AU16-SDM BB H 1 09:58:17.04 248.904 00:01:31 Yes
188 Red Ass Ranch 0148-AU16-RAR BBWF H 1 09:58:17.64 248.816 00:01:31 Yes
189 Yo Yo Spetz 1627-AU16-JEDD BCPD H 2 09:58:17.79 248.794 00:01:32 Yes
190 Crooked Arrow Loft 79746-AU16-ARPU BC H 5 09:58:18.23 248.730 00:01:32 Yes
191 3 Stars & A Sun Loft 0036-AU16-STAR BC H 3 09:58:20.35 248.419 00:01:34 Yes
192 Yo Yo Spetz 1632-AU16-JEDD BCWF H 3 09:58:20.47 248.402 00:01:34 Yes
193 Juan Alonzo 0440-AU16-ALON BB H 1 09:58:20.81 248.352 00:01:35 Yes
194 Lazy A C Loft 0615-AU16-INDY BC H 1 09:58:21.27 248.285 00:01:35 Yes
195 K C Loft 1797-AU16-WSJ BB H 1 09:58:22.84 248.056 00:01:37 Yes
196 Kastle Loft 1669-AU16-KAST BB H 2 09:58:23.44 247.969 00:01:37 Yes
197 P N W Challenge 6179-AU16-PNWC BC H 3 09:58:25.51 247.668 00:01:39 Yes
198 Lazy A C Loft 0614-AU16-INDY BB H 2 09:58:25.93 247.607 00:01:40 Yes
199 Modud 16121-AU16-PUEB BB H 2 09:58:26.62 247.507 00:01:40 Yes
200 Lulus Loft 0419-AU16-SD 4 Of A Kind BB H 3 09:58:27.72 247.347 00:01:42 Yes

There are 615 bird records

Note: These Race Results are unofficial and subject to change until verified by the Race Committee and declared final.


Click for forecast!